Time,TemperatureF,DewpointF,PressureIn,WindDirection,WindDirectionDegrees,WindSpeedMPH,WindSpeedGustMPH,Humidity,HourlyPrecipIn,Conditions,Clouds,dailyrainin,SoftwareType,DateUTC
2013-02-26 00:03:00,25.6,17.7,30.19,North,0,0.2,0.9,72,0.00,,,0.00,WUHU216HW,2013-02-26 08:03:00,
2013-02-26 00:08:00,25.6,17.7,30.19,North,0,0.0,0.9,72,0.00,,,0.00,WUHU216HW,2013-02-26 08:08:00,
2013-02-26 00:13:00,25.6,17.7,30.19,SE,135,0.4,0.4,72,0.00,,,0.00,WUHU216HW,2013-02-26 08:13:00,
2013-02-26 00:18:00,25.6,17.7,30.19,SE,135,0.4,0.4,72,0.00,,,0.00,WUHU216HW,2013-02-26 08:18:00,
2013-02-26 00:23:00,25.6,17.7,30.19,ENE,68,0.0,0.4,72,0.00,,,0.00,WUHU216HW,2013-02-26 08:23:00,
2013-02-26 00:28:00,25.6,17.7,30.19,South,180,0.2,0.4,72,0.00,,,0.00,WUHU216HW,2013-02-26 08:28:00,
2013-02-26 00:33:00,25.4,17.6,30.19,SW,225,0.2,0.9,72,0.00,,,0.00,WUHU216HW,2013-02-26 08:33:00,
2013-02-26 00:38:00,25.4,17.6,30.19,WNW,293,0.2,0.9,72,0.00,,,0.00,WUHU216HW,2013-02-26 08:38:00,
2013-02-26 00:43:00,25.2,17.7,30.19,NNW,338,0.0,0.7,73,0.00,,,0.00,WUHU216HW,2013-02-26 08:43:00,
2013-02-26 00:48:00,25.2,17.4,30.19,NNE,23,1.1,1.3,72,0.00,,,0.00,WUHU216HW,2013-02-26 08:48:00,
2013-02-26 00:53:00,25.2,17.4,30.20,ESE,113,0.4,1.3,72,0.00,,,0.00,WUHU216HW,2013-02-26 08:53:00,
2013-02-26 00:58:00,25.2,17.4,30.20,East,90,0.9,0.9,72,0.00,,,0.00,WUHU216HW,2013-02-26 08:58:00,
2013-02-26 01:03:00,25.0,17.2,30.20,East,90,0.0,0.9,72,0.00,,,0.00,WUHU216HW,2013-02-26 09:03:00,
2013-02-26 01:09:00,25.0,17.6,30.20,NNE,23,0.4,0.4,73,0.00,,,0.00,WUHU216HW,2013-02-26 09:09:00,
2013-02-26 01:14:00,24.8,17.4,30.20,North,0,1.1,1.1,73,0.00,,,0.00,WUHU216HW,2013-02-26 09:14:00,
2013-02-26 01:19:00,24.7,17.2,30.20,North,0,0.4,1.8,73,0.00,,,0.00,WUHU216HW,2013-02-26 09:19:00,
2013-02-26 01:24:00,24.7,16.8,30.20,North,0,0.0,1.6,72,0.00,,,0.00,WUHU216HW,2013-02-26 09:24:00,
2013-02-26 01:29:00,24.7,16.8,30.20,SE,135,1.1,1.1,72,0.00,,,0.00,WUHU216HW,2013-02-26 09:29:00,
2013-02-26 01:34:00,24.5,16.8,30.19,ENE,68,0.2,1.1,72,0.00,,,0.00,WUHU216HW,2013-02-26 09:34:00,
2013-02-26 01:39:00,24.5,17.0,30.19,ESE,113,0.4,1.1,73,0.00,,,0.00,WUHU216HW,2013-02-26 09:39:00,
2013-02-26 01:44:00,24.3,16.8,30.20,NNE,23,0.9,0.9,73,0.00,,,0.00,WUHU216HW,2013-02-26 09:44:00,
2013-02-26 01:49:00,24.3,16.8,30.20,SSW,203,0.4,0.9,73,0.00,,,0.00,WUHU216HW,2013-02-26 09:49:00,
2013-02-26 01:54:00,24.1,16.7,30.20,SW,225,0.4,1.6,73,0.00,,,0.00,WUHU216HW,2013-02-26 09:54:00,
2013-02-26 01:59:00,24.1,16.7,30.20,ENE,68,0.0,1.6,73,0.00,,,0.00,WUHU216HW,2013-02-26 09:59:00,
2013-02-26 02:05:00,24.1,16.7,30.20,ENE,68,0.0,0.4,73,0.00,,,0.00,WUHU216HW,2013-02-26 10:05:00,
2013-02-26 02:10:00,23.9,16.5,30.20,NNE,23,0.2,0.4,73,0.00,,,0.00,WUHU216HW,2013-02-26 10:10:00,
2013-02-26 02:15:00,23.8,16.7,30.20,NW,315,0.7,0.9,74,0.00,,,0.00,WUHU216HW,2013-02-26 10:15:00,
2013-02-26 02:20:00,23.6,16.5,30.20,NNW,338,0.9,0.9,74,0.00,,,0.00,WUHU216HW,2013-02-26 10:20:00,
2013-02-26 02:25:00,23.4,16.0,30.20,WSW,248,0.4,2.0,73,0.00,,,0.00,WUHU216HW,2013-02-26 10:25:00,
2013-02-26 02:30:00,23.4,16.3,30.20,NW,315,1.1,3.4,74,0.00,,,0.00,WUHU216HW,2013-02-26 10:30:00,
2013-02-26 02:35:00,23.2,15.8,30.20,NW,315,1.3,3.8,73,0.00,,,0.00,WUHU216HW,2013-02-26 10:35:00,
2013-02-26 02:40:00,23.0,15.7,30.20,West,270,1.8,3.8,73,0.00,,,0.00,WUHU216HW,2013-02-26 10:40:00,
2013-02-26 02:45:00,23.0,16.0,30.19,North,0,0.7,1.8,74,0.00,,,0.00,WUHU216HW,2013-02-26 10:45:00,
2013-02-26 02:50:00,22.9,15.9,30.20,NW,315,2.7,2.7,74,0.00,,,0.00,WUHU216HW,2013-02-26 10:50:00,
2013-02-26 02:55:00,22.7,15.7,30.19,NW,315,1.3,2.7,74,0.00,,,0.00,WUHU216HW,2013-02-26 10:55:00,
2013-02-26 03:00:00,22.7,15.9,30.19,WSW,248,0.7,2.7,75,0.00,,,0.00,WUHU216HW,2013-02-26 11:00:00,
2013-02-26 03:05:00,22.9,16.1,30.20,NW,315,0.4,1.8,75,0.00,,,0.00,WUHU216HW,2013-02-26 11:05:00,
2013-02-26 03:11:00,22.9,16.1,30.20,North,0,0.0,1.8,75,0.00,,,0.00,WUHU216HW,2013-02-26 11:11:00,
2013-02-26 03:16:00,22.9,15.9,30.19,East,90,0.2,1.1,74,0.00,,,0.00,WUHU216HW,2013-02-26 11:16:00,
2013-02-26 03:21:00,22.9,15.9,30.19,WSW,248,0.4,2.5,74,0.00,,,0.00,WUHU216HW,2013-02-26 11:21:00,
2013-02-26 03:26:00,23.0,16.3,30.19,WNW,293,3.4,3.4,75,0.00,,,0.00,WUHU216HW,2013-02-26 11:26:00,
2013-02-26 03:31:00,23.0,16.3,30.19,NNW,338,0.2,3.4,75,0.00,,,0.00,WUHU216HW,2013-02-26 11:31:00,
2013-02-26 03:36:00,23.0,16.3,30.19,WSW,248,0.2,2.5,75,0.00,,,0.00,WUHU216HW,2013-02-26 11:36:00,
2013-02-26 03:41:00,23.0,16.0,30.20,West,270,0.7,1.6,74,0.00,,,0.00,WUHU216HW,2013-02-26 11:41:00,
2013-02-26 03:46:00,23.0,16.3,30.20,WSW,248,2.7,6.3,75,0.00,,,0.00,WUHU216HW,2013-02-26 11:46:00,
2013-02-26 03:51:00,23.0,16.3,30.20,WNW,293,2.5,6.3,75,0.00,,,0.00,WUHU216HW,2013-02-26 11:51:00,
2013-02-26 03:56:00,23.0,16.3,30.19,WSW,248,0.7,3.4,75,0.00,,,0.00,WUHU216HW,2013-02-26 11:56:00,
2013-02-26 04:01:00,23.0,16.3,30.19,WSW,248,1.6,3.4,75,0.00,,,0.00,WUHU216HW,2013-02-26 12:01:00,
2013-02-26 04:06:00,23.0,16.3,30.19,West,270,0.2,3.4,75,0.00,,,0.00,WUHU216HW,2013-02-26 12:06:00,
2013-02-26 04:11:00,23.0,16.3,30.19,WSW,248,2.7,3.4,75,0.00,,,0.00,WUHU216HW,2013-02-26 12:11:00,
2013-02-26 04:16:00,23.0,16.3,30.19,West,270,0.9,3.8,75,0.00,,,0.00,WUHU216HW,2013-02-26 12:16:00,
2013-02-26 04:21:00,23.0,16.3,30.19,WSW,248,2.9,3.8,75,0.00,,,0.00,WUHU216HW,2013-02-26 12:21:00,
2013-02-26 04:26:00,22.9,16.1,30.19,WNW,293,0.7,5.6,75,0.00,,,0.00,WUHU216HW,2013-02-26 12:26:00,
2013-02-26 04:31:00,22.9,16.1,30.19,West,270,0.2,5.6,75,0.00,,,0.00,WUHU216HW,2013-02-26 12:31:00,
2013-02-26 04:36:00,22.9,16.1,30.19,WSW,248,4.5,5.4,75,0.00,,,0.00,WUHU216HW,2013-02-26 12:36:00,
2013-02-26 04:41:00,22.9,16.1,30.19,WSW,248,1.8,4.5,75,0.00,,,0.00,WUHU216HW,2013-02-26 12:41:00,
2013-02-26 04:46:00,22.9,16.1,30.19,WSW,248,1.8,4.0,75,0.00,,,0.00,WUHU216HW,2013-02-26 12:46:00,
2013-02-26 04:52:00,22.9,16.1,30.20,WSW,248,1.1,5.1,75,0.00,,,0.00,WUHU216HW,2013-02-26 12:52:00,
2013-02-26 04:57:00,22.9,16.1,30.20,SW,225,0.4,5.1,75,0.00,,,0.00,WUHU216HW,2013-02-26 12:57:00,
2013-02-26 05:02:00,23.0,16.3,30.20,SW,225,0.4,2.5,75,0.00,,,0.00,WUHU216HW,2013-02-26 13:02:00,
2013-02-26 05:07:00,23.0,16.3,30.20,West,270,1.8,3.6,75,0.00,,,0.00,WUHU216HW,2013-02-26 13:07:00,
2013-02-26 05:12:00,22.9,16.4,30.19,South,180,1.3,5.8,76,0.00,,,0.00,WUHU216HW,2013-02-26 13:12:00,
2013-02-26 05:17:00,23.0,16.3,30.19,WSW,248,6.3,6.3,75,0.00,,,0.00,WUHU216HW,2013-02-26 13:17:00,
2013-02-26 05:22:00,23.0,16.6,30.19,West,270,8.5,8.5,76,0.00,,,0.00,WUHU216HW,2013-02-26 13:22:00,
2013-02-26 05:27:00,23.0,16.6,30.19,West,270,2.9,8.5,76,0.00,,,0.00,WUHU216HW,2013-02-26 13:27:00,
2013-02-26 05:32:00,23.0,16.6,30.19,SW,225,6.3,6.7,76,0.00,,,0.00,WUHU216HW,2013-02-26 13:32:00,
2013-02-26 05:37:00,23.0,16.6,30.20,SW,225,0.2,6.3,76,0.00,,,0.00,WUHU216HW,2013-02-26 13:37:00,
2013-02-26 05:42:00,23.0,16.6,30.20,WSW,248,5.4,5.4,76,0.00,,,0.00,WUHU216HW,2013-02-26 13:42:00,
2013-02-26 05:47:00,23.0,16.6,30.20,WSW,248,3.6,7.2,76,0.00,,,0.00,WUHU216HW,2013-02-26 13:47:00,
2013-02-26 05:52:00,23.0,16.9,30.20,West,270,1.8,7.2,77,0.00,,,0.00,WUHU216HW,2013-02-26 13:52:00,
2013-02-26 05:57:00,23.0,16.6,30.20,WSW,248,3.8,8.5,76,0.00,,,0.00,WUHU216HW,2013-02-26 13:57:00,
2013-02-26 06:02:00,23.0,16.6,30.20,WSW,248,2.7,8.5,76,0.00,,,0.00,WUHU216HW,2013-02-26 14:02:00,
2013-02-26 06:07:00,23.0,16.6,30.20,SSW,203,4.7,5.4,76,0.00,,,0.00,WUHU216HW,2013-02-26 14:07:00,
2013-02-26 06:12:00,23.0,16.9,30.20,WNW,293,3.6,7.6,77,0.00,,,0.00,WUHU216HW,2013-02-26 14:12:00,
2013-02-26 06:17:00,23.0,16.9,30.20,SSW,203,1.8,7.6,77,0.00,,,0.00,WUHU216HW,2013-02-26 14:17:00,
2013-02-26 06:22:00,23.0,16.9,30.20,South,180,3.4,5.4,77,0.00,,,0.00,WUHU216HW,2013-02-26 14:22:00,
2013-02-26 06:27:00,23.0,16.6,30.20,SSW,203,3.4,4.7,76,0.00,,,0.00,WUHU216HW,2013-02-26 14:27:00,
2013-02-26 06:33:00,23.0,16.6,30.20,West,270,2.7,8.9,76,0.00,,,0.00,WUHU216HW,2013-02-26 14:33:00,
2013-02-26 06:38:00,23.0,16.6,30.20,WSW,248,0.9,8.9,76,0.00,,,0.00,WUHU216HW,2013-02-26 14:38:00,
2013-02-26 06:43:00,23.0,16.6,30.20,SSE,158,4.0,6.7,76,0.00,,,0.00,WUHU216HW,2013-02-26 14:43:00,
2013-02-26 06:48:00,23.0,16.6,30.20,West,270,2.5,4.0,76,0.00,,,0.00,WUHU216HW,2013-02-26 14:48:00,
2013-02-26 06:53:00,22.9,16.8,30.20,SSW,203,1.8,2.7,77,0.00,,,0.00,WUHU216HW,2013-02-26 14:53:00,
2013-02-26 06:58:00,22.9,16.4,30.20,WNW,293,2.9,4.7,76,0.00,,,0.00,WUHU216HW,2013-02-26 14:58:00,
2013-02-26 07:03:00,22.9,16.4,30.20,SW,225,2.7,5.6,76,0.00,,,0.00,WUHU216HW,2013-02-26 15:03:00,
2013-02-26 07:08:00,22.9,16.4,30.20,SW,225,4.7,5.6,76,0.00,,,0.00,WUHU216HW,2013-02-26 15:08:00,
2013-02-26 07:13:00,22.9,16.4,30.21,SW,225,3.6,8.9,76,0.00,,,0.00,WUHU216HW,2013-02-26 15:13:00,
2013-02-26 07:18:00,23.0,16.6,30.21,SW,225,3.6,8.9,76,0.00,,,0.00,WUHU216HW,2013-02-26 15:18:00,
2013-02-26 07:23:00,23.0,16.6,30.21,WNW,293,1.8,4.9,76,0.00,,,0.00,WUHU216HW,2013-02-26 15:23:00,
2013-02-26 07:28:00,23.0,16.6,30.21,NNW,338,4.0,4.0,76,0.00,,,0.00,WUHU216HW,2013-02-26 15:28:00,
2013-02-26 07:33:00,23.0,16.6,30.21,SW,225,1.8,4.0,76,0.00,,,0.00,WUHU216HW,2013-02-26 15:33:00,
2013-02-26 07:38:00,23.2,16.7,30.21,SSW,203,5.4,5.4,76,0.00,,,0.00,WUHU216HW,2013-02-26 15:38:00,
2013-02-26 07:43:00,23.4,16.9,30.21,ESE,113,0.2,5.4,76,0.00,,,0.00,WUHU216HW,2013-02-26 15:43:00,
2013-02-26 07:48:00,23.4,16.9,30.21,WSW,248,3.1,6.0,76,0.00,,,0.00,WUHU216HW,2013-02-26 15:48:00,
2013-02-26 07:53:00,23.8,17.0,30.21,SSW,203,4.5,6.3,75,0.00,,,0.00,WUHU216HW,2013-02-26 15:53:00,
2013-02-26 07:58:00,24.1,17.3,30.21,SW,225,1.8,6.9,75,0.00,,,0.00,WUHU216HW,2013-02-26 15:58:00,
2013-02-26 08:03:00,24.3,17.5,30.21,SW,225,5.6,6.9,75,0.00,,,0.00,WUHU216HW,2013-02-26 16:03:00,
2013-02-26 08:08:00,24.8,18.0,30.21,SSW,203,2.5,6.7,75,0.00,,,0.00,WUHU216HW,2013-02-26 16:08:00,
2013-02-26 08:13:00,25.0,18.2,30.21,West,270,1.1,6.7,75,0.00,,,0.00,WUHU216HW,2013-02-26 16:13:00,
2013-02-26 08:18:00,25.4,18.6,30.21,WSW,248,0.4,5.8,75,0.00,,,0.00,WUHU216HW,2013-02-26 16:18:00,
2013-02-26 08:23:00,25.7,18.5,30.21,WSW,248,2.5,5.4,74,0.00,,,0.00,WUHU216HW,2013-02-26 16:23:00,
2013-02-26 08:28:00,26.1,18.9,30.22,SSW,203,2.2,5.8,74,0.00,,,0.00,WUHU216HW,2013-02-26 16:28:00,
2013-02-26 08:33:00,26.5,18.9,30.22,ENE,68,3.8,8.7,73,0.00,,,0.00,WUHU216HW,2013-02-26 16:33:00,
2013-02-26 08:38:00,26.6,18.8,30.22,WSW,248,4.5,9.4,72,0.00,,,0.00,WUHU216HW,2013-02-26 16:38:00,
2013-02-26 08:43:00,27.0,18.8,30.22,SSW,203,4.0,9.4,71,0.00,,,0.00,WUHU216HW,2013-02-26 16:43:00,
2013-02-26 08:48:00,27.4,19.2,30.22,SSW,203,4.0,8.9,71,0.00,,,0.00,WUHU216HW,2013-02-26 16:48:00,
2013-02-26 08:54:00,27.7,19.5,30.23,West,270,6.7,6.7,71,0.00,,,0.00,WUHU216HW,2013-02-26 16:54:00,
2013-02-26 08:59:00,28.1,19.6,30.22,SW,225,6.7,6.7,70,0.00,,,0.00,WUHU216HW,2013-02-26 16:59:00,
2013-02-26 09:04:00,28.4,19.3,30.23,SSW,203,6.3,10.5,68,0.00,,,0.00,WUHU216HW,2013-02-26 17:04:00,
2013-02-26 09:09:00,28.8,19.6,30.22,South,180,5.6,10.5,68,0.00,,,0.00,WUHU216HW,2013-02-26 17:09:00,
2013-02-26 09:14:00,29.0,19.4,30.22,WSW,248,4.9,10.5,67,0.00,,,0.00,WUHU216HW,2013-02-26 17:14:00,
2013-02-26 09:19:00,29.2,19.5,30.22,SSW,203,5.6,8.9,67,0.00,,,0.00,WUHU216HW,2013-02-26 17:19:00,
2013-02-26 09:24:00,29.5,19.9,30.22,SW,225,6.3,8.5,67,0.00,,,0.00,WUHU216HW,2013-02-26 17:24:00,
2013-02-26 09:29:00,29.9,19.8,30.23,SW,225,9.2,9.2,66,0.00,,,0.00,WUHU216HW,2013-02-26 17:29:00,
2013-02-26 09:34:00,30.2,20.2,30.22,SSW,203,7.6,9.2,66,0.00,,,0.00,WUHU216HW,2013-02-26 17:34:00,
2013-02-26 09:39:00,30.6,20.2,30.22,WSW,248,7.4,9.2,65,0.00,,,0.00,WUHU216HW,2013-02-26 17:39:00,
2013-02-26 09:44:00,31.1,21.1,30.22,SW,225,2.5,9.2,66,0.00,,,0.00,WUHU216HW,2013-02-26 17:44:00,
2013-02-26 09:49:00,31.5,20.7,30.22,SSW,203,9.2,12.1,64,0.00,,,0.00,WUHU216HW,2013-02-26 17:49:00,
2013-02-26 09:54:00,31.9,20.3,30.22,SW,225,11.0,12.1,62,0.00,,,0.00,WUHU216HW,2013-02-26 17:54:00,
2013-02-26 09:59:00,32.0,20.2,30.21,South,180,4.9,11.0,61,0.00,,,0.00,WUHU216HW,2013-02-26 17:59:00,
2013-02-26 10:04:00,32.4,20.5,30.21,SSW,203,5.4,9.4,61,0.00,,,0.00,WUHU216HW,2013-02-26 18:04:00,
2013-02-26 10:09:00,32.6,20.6,30.21,SSW,203,4.7,9.4,61,0.00,,,0.00,WUHU216HW,2013-02-26 18:09:00,
2013-02-26 10:14:00,32.9,19.7,30.21,SSW,203,8.9,9.8,58,0.00,,,0.00,WUHU216HW,2013-02-26 18:14:00,
2013-02-26 10:19:00,33.1,19.4,30.21,WSW,248,4.0,9.8,57,0.00,,,0.00,WUHU216HW,2013-02-26 18:19:00,
2013-02-26 10:24:00,33.3,19.2,30.21,SW,225,8.7,8.7,56,0.00,,,0.00,WUHU216HW,2013-02-26 18:24:00,
2013-02-26 10:29:00,33.7,19.5,30.20,SW,225,7.2,10.7,56,0.00,,,0.00,WUHU216HW,2013-02-26 18:29:00,
2013-02-26 10:34:00,34.2,20.1,30.20,South,180,5.8,10.7,56,0.00,,,0.00,WUHU216HW,2013-02-26 18:34:00,
2013-02-26 10:39:00,34.6,19.5,30.20,WSW,248,6.3,9.6,54,0.00,,,0.00,WUHU216HW,2013-02-26 18:39:00,
2013-02-26 10:44:00,34.9,18.2,30.20,SW,225,6.3,10.5,50,0.00,,,0.00,WUHU216HW,2013-02-26 18:44:00,
2013-02-26 10:49:00,35.1,18.4,30.20,SSW,203,7.8,10.5,50,0.00,,,0.00,WUHU216HW,2013-02-26 18:49:00,
2013-02-26 10:54:00,35.6,18.9,30.19,SE,135,4.0,9.2,50,0.00,,,0.00,WUHU216HW,2013-02-26 18:54:00,
2013-02-26 10:59:00,36.2,16.7,30.20,South,180,11.2,13.6,45,0.01,,,0.01,WUHU216HW,2013-02-26 18:59:00,
2013-02-26 11:04:00,36.2,17.3,30.19,SW,225,8.9,13.6,46,0.01,,,0.01,WUHU216HW,2013-02-26 19:04:00,
2013-02-26 11:09:00,36.4,17.5,30.19,SSW,203,7.8,9.4,46,0.01,,,0.01,WUHU216HW,2013-02-26 19:09:00,
2013-02-26 11:14:00,36.5,18.2,30.19,SSW,203,3.6,10.5,47,0.01,,,0.01,WUHU216HW,2013-02-26 19:14:00,
2013-02-26 11:20:00,36.7,17.3,30.19,SSW,203,6.7,10.5,45,0.01,,,0.01,WUHU216HW,2013-02-26 19:20:00,
2013-02-26 11:25:00,36.7,17.8,30.19,South,180,4.9,8.9,46,0.01,,,0.01,WUHU216HW,2013-02-26 19:25:00,
2013-02-26 11:30:00,37.1,18.1,30.19,WSW,248,9.2,10.1,46,0.01,,,0.01,WUHU216HW,2013-02-26 19:30:00,
2013-02-26 11:35:00,37.1,16.6,30.19,SSW,203,10.1,10.1,43,0.01,,,0.01,WUHU216HW,2013-02-26 19:35:00,
2013-02-26 11:40:00,37.3,17.2,30.18,SW,225,10.7,10.7,44,0.01,,,0.01,WUHU216HW,2013-02-26 19:40:00,
2013-02-26 11:45:00,37.4,17.4,30.18,SSW,203,4.5,10.7,44,0.01,,,0.01,WUHU216HW,2013-02-26 19:45:00,
2013-02-26 11:50:00,37.8,17.2,30.18,SSW,203,1.1,8.7,43,0.01,,,0.01,WUHU216HW,2013-02-26 19:50:00,
2013-02-26 11:55:00,38.5,15.7,30.18,SSW,203,11.6,11.6,39,0.01,,,0.01,WUHU216HW,2013-02-26 19:55:00,
2013-02-26 12:00:00,38.7,16.9,30.18,SSW,203,6.0,11.6,41,0.00,,,0.01,WUHU216HW,2013-02-26 20:00:00,
2013-02-26 12:05:00,39.2,16.3,30.18,WSW,248,4.0,8.3,39,0.00,,,0.01,WUHU216HW,2013-02-26 20:05:00,
2013-02-26 12:10:00,39.2,16.9,30.17,SW,225,5.1,8.3,40,0.00,,,0.01,WUHU216HW,2013-02-26 20:10:00,
2013-02-26 12:15:00,39.4,17.1,30.17,SW,225,9.8,9.8,40,0.00,,,0.01,WUHU216HW,2013-02-26 20:15:00,
2013-02-26 12:20:00,39.4,17.1,30.17,SSW,203,6.9,9.8,40,0.00,,,0.01,WUHU216HW,2013-02-26 20:20:00,
2013-02-26 12:25:00,39.6,17.3,30.17,SSW,203,3.1,7.6,40,0.00,,,0.01,WUHU216HW,2013-02-26 20:25:00,
2013-02-26 12:30:00,40.0,17.6,30.17,WSW,248,6.0,6.9,40,0.00,,,0.01,WUHU216HW,2013-02-26 20:30:00,
2013-02-26 12:35:00,40.5,18.1,30.18,SW,225,5.6,7.6,40,0.00,,,0.01,WUHU216HW,2013-02-26 20:35:00,
2013-02-26 12:40:00,40.7,16.9,30.17,SSW,203,4.9,9.2,38,0.00,,,0.01,WUHU216HW,2013-02-26 20:40:00,
2013-02-26 12:45:00,40.9,17.1,30.17,SSW,203,5.1,9.2,38,0.00,,,0.01,WUHU216HW,2013-02-26 20:45:00,
2013-02-26 12:50:00,41.2,17.4,30.17,SSW,203,6.9,6.9,38,0.00,,,0.01,WUHU216HW,2013-02-26 20:50:00,
2013-02-26 12:55:00,41.2,18.7,30.17,SSW,203,4.3,6.9,40,0.00,,,0.01,WUHU216HW,2013-02-26 20:55:00,
2013-02-26 13:00:00,41.4,17.6,30.17,SW,225,4.9,6.3,38,0.00,,,0.01,WUHU216HW,2013-02-26 21:00:00,
2013-02-26 13:05:00,41.4,18.2,30.17,South,180,4.3,5.6,39,0.00,,,0.01,WUHU216HW,2013-02-26 21:05:00,
2013-02-26 13:10:00,41.8,18.6,30.17,SSW,203,4.7,8.1,39,0.00,,,0.01,WUHU216HW,2013-02-26 21:10:00,
2013-02-26 13:15:00,42.1,17.6,30.16,SSW,203,7.4,8.5,37,0.00,,,0.01,WUHU216HW,2013-02-26 21:15:00,
2013-02-26 13:20:00,42.1,17.6,30.16,South,180,6.9,9.8,37,0.00,,,0.01,WUHU216HW,2013-02-26 21:20:00,
2013-02-26 13:25:00,42.1,17.6,30.16,WSW,248,6.0,9.8,37,0.00,,,0.01,WUHU216HW,2013-02-26 21:25:00,
2013-02-26 13:30:00,42.1,16.9,30.16,SW,225,8.9,9.6,36,0.00,,,0.01,WUHU216HW,2013-02-26 21:30:00,
2013-02-26 13:35:00,42.3,17.0,30.16,South,180,9.2,9.2,36,0.00,,,0.01,WUHU216HW,2013-02-26 21:35:00,
2013-02-26 13:41:00,42.5,18.6,30.17,SSW,203,10.1,10.1,38,0.00,,,0.01,WUHU216HW,2013-02-26 21:41:00,
2013-02-26 13:46:00,43.0,18.4,30.16,SW,225,4.0,10.1,37,0.00,,,0.01,WUHU216HW,2013-02-26 21:46:00,
2013-02-26 13:51:00,43.6,18.2,30.16,SSW,203,5.4,7.6,36,0.00,,,0.01,WUHU216HW,2013-02-26 21:51:00,
2013-02-26 13:56:00,43.7,19.0,30.16,SW,225,5.4,5.4,37,0.00,,,0.01,WUHU216HW,2013-02-26 21:56:00,
2013-02-26 14:01:00,43.9,19.2,30.16,SW,225,2.0,6.7,37,0.00,,,0.01,WUHU216HW,2013-02-26 22:01:00,
2013-02-26 14:06:00,44.5,19.6,30.16,SW,225,1.8,7.8,37,0.00,,,0.01,WUHU216HW,2013-02-26 22:06:00,
2013-02-26 14:11:00,45.0,20.1,30.16,SW,225,2.5,7.8,37,0.00,,,0.01,WUHU216HW,2013-02-26 22:11:00,
2013-02-26 14:16:00,45.4,19.8,30.16,SW,225,7.6,7.6,36,0.00,,,0.01,WUHU216HW,2013-02-26 22:16:00,
2013-02-26 14:21:00,45.4,17.1,30.16,SSW,203,6.9,8.1,32,0.00,,,0.01,WUHU216HW,2013-02-26 22:21:00,
2013-02-26 14:26:00,45.4,18.5,30.15,SSW,203,6.3,9.8,34,0.00,,,0.01,WUHU216HW,2013-02-26 22:26:00,
2013-02-26 14:31:00,45.5,17.9,30.15,SSW,203,4.3,9.8,33,0.00,,,0.01,WUHU216HW,2013-02-26 22:31:00,
2013-02-26 14:36:00,45.7,18.1,30.15,SW,225,7.4,8.1,33,0.00,,,0.01,WUHU216HW,2013-02-26 22:36:00,
2013-02-26 14:41:00,45.9,18.3,30.15,SSW,203,7.2,8.1,33,0.00,,,0.01,WUHU216HW,2013-02-26 22:41:00,
2013-02-26 14:47:00,45.9,18.3,30.15,SW,225,4.7,7.4,33,0.00,,,0.01,WUHU216HW,2013-02-26 22:47:00,
2013-02-26 14:52:00,45.7,18.7,30.15,SW,225,4.5,7.4,34,0.00,,,0.01,WUHU216HW,2013-02-26 22:52:00,
2013-02-26 14:57:00,45.7,18.7,30.14,SSW,203,9.8,9.8,34,0.00,,,0.01,WUHU216HW,2013-02-26 22:57:00,
2013-02-26 15:02:00,45.7,18.1,30.14,SSW,203,2.5,9.8,33,0.00,,,0.01,WUHU216HW,2013-02-26 23:02:00,
2013-02-26 15:07:00,45.7,17.5,30.15,SSE,158,4.0,8.5,32,0.00,,,0.01,WUHU216HW,2013-02-26 23:07:00,
2013-02-26 15:12:00,45.4,17.1,30.15,SSW,203,9.2,9.2,32,0.00,,,0.01,WUHU216HW,2013-02-26 23:12:00,
2013-02-26 15:17:00,45.2,17.7,30.14,West,270,7.8,9.2,33,0.00,,,0.01,WUHU216HW,2013-02-26 23:17:00,
2013-02-26 15:22:00,45.4,17.7,30.14,SSE,158,4.9,10.1,33,0.00,,,0.01,WUHU216HW,2013-02-26 23:22:00,
2013-02-26 15:27:00,45.4,19.1,30.14,SSW,203,4.3,10.1,35,0.00,,,0.01,WUHU216HW,2013-02-26 23:27:00,
2013-02-26 15:32:00,45.7,18.1,30.14,SSW,203,10.5,10.5,33,0.00,,,0.01,WUHU216HW,2013-02-26 23:32:00,
2013-02-26 15:37:00,45.7,18.1,30.14,South,180,4.9,10.5,33,0.00,,,0.01,WUHU216HW,2013-02-26 23:37:00,
2013-02-26 15:42:00,45.7,18.1,30.13,SSW,203,4.9,10.7,33,0.00,,,0.01,WUHU216HW,2013-02-26 23:42:00,
2013-02-26 15:47:00,45.7,18.7,30.14,SSW,203,6.3,10.7,34,0.00,,,0.01,WUHU216HW,2013-02-26 23:47:00,
2013-02-26 15:52:00,45.5,18.6,30.14,SSW,203,6.3,9.4,34,0.00,,,0.01,WUHU216HW,2013-02-26 23:52:00,
2013-02-26 15:57:00,45.5,17.9,30.14,South,180,1.6,9.4,33,0.00,,,0.01,WUHU216HW,2013-02-26 23:57:00,
2013-02-26 16:02:00,45.4,19.1,30.14,WSW,248,3.1,6.7,35,0.00,,,0.01,WUHU216HW,2013-02-27 00:02:00,
2013-02-26 16:07:00,45.2,19.6,30.14,SSW,203,2.2,6.7,36,0.00,,,0.01,WUHU216HW,2013-02-27 00:07:00,
2013-02-26 16:12:00,44.8,19.3,30.14,SSW,203,6.7,7.6,36,0.00,,,0.01,WUHU216HW,2013-02-27 00:12:00,
2013-02-26 16:17:00,44.8,19.3,30.14,SW,225,2.9,7.6,36,0.00,,,0.01,WUHU216HW,2013-02-27 00:17:00,
2013-02-26 16:22:00,44.5,19.6,30.14,SSW,203,4.9,4.9,37,0.00,,,0.01,WUHU216HW,2013-02-27 00:22:00,
2013-02-26 16:28:00,44.3,19.4,30.14,SW,225,5.6,6.9,37,0.00,,,0.01,WUHU216HW,2013-02-27 00:28:00,
2013-02-26 16:33:00,44.3,18.8,30.14,SSW,203,5.8,6.9,36,0.00,,,0.01,WUHU216HW,2013-02-27 00:33:00,
2013-02-26 16:38:00,44.3,19.4,30.14,SSW,203,2.9,7.6,37,0.00,,,0.01,WUHU216HW,2013-02-27 00:38:00,
2013-02-26 16:43:00,44.3,19.4,30.15,SW,225,3.4,7.6,37,0.00,,,0.01,WUHU216HW,2013-02-27 00:43:00,
2013-02-26 16:48:00,44.1,19.3,30.14,SW,225,2.7,5.4,37,0.00,,,0.01,WUHU216HW,2013-02-27 00:48:00,
2013-02-26 16:53:00,43.9,19.8,30.14,WSW,248,1.6,4.0,38,0.00,,,0.01,WUHU216HW,2013-02-27 00:53:00,
2013-02-26 16:58:00,43.7,17.6,30.14,ENE,68,0.4,2.5,35,0.00,,,0.01,WUHU216HW,2013-02-27 00:58:00,
2013-02-26 17:03:00,43.7,16.3,30.14,West,270,0.4,4.9,33,0.00,,,0.01,WUHU216HW,2013-02-27 01:03:00,
2013-02-26 17:08:00,43.7,15.7,30.14,NW,315,2.9,4.9,32,0.00,,,0.01,WUHU216HW,2013-02-27 01:08:00,
2013-02-26 17:13:00,43.7,15.7,30.14,NW,315,1.8,4.5,32,0.00,,,0.01,WUHU216HW,2013-02-27 01:13:00,
2013-02-26 17:18:00,43.6,16.1,30.14,WNW,293,2.7,2.9,33,0.00,,,0.01,WUHU216HW,2013-02-27 01:18:00,
2013-02-26 17:23:00,43.6,15.5,30.14,NW,315,4.0,4.0,32,0.00,,,0.01,WUHU216HW,2013-02-27 01:23:00,
2013-02-26 17:28:00,43.2,15.9,30.14,NNW,338,0.4,4.0,33,0.00,,,0.01,WUHU216HW,2013-02-27 01:28:00,
2013-02-26 17:33:00,43.2,15.9,30.14,NW,315,0.4,2.5,33,0.00,,,0.01,WUHU216HW,2013-02-27 01:33:00,
2013-02-26 17:38:00,42.8,16.8,30.14,NE,45,0.9,1.8,35,0.00,,,0.01,WUHU216HW,2013-02-27 01:38:00,
2013-02-26 17:43:00,42.7,16.7,30.14,NNW,338,0.0,1.8,35,0.00,,,0.01,WUHU216HW,2013-02-27 01:43:00,
2013-02-26 17:48:00,42.3,17.0,30.14,NNW,338,0.0,1.8,36,0.00,,,0.01,WUHU216HW,2013-02-27 01:48:00,
2013-02-26 17:53:00,42.1,17.6,30.14,NNW,338,0.0,0.4,37,0.00,,,0.01,WUHU216HW,2013-02-27 01:53:00,
2013-02-26 17:58:00,41.6,17.7,30.14,North,0,0.4,0.7,38,0.00,,,0.01,WUHU216HW,2013-02-27 01:58:00,
2013-02-26 18:03:00,41.4,17.6,30.14,North,0,0.7,0.7,38,0.00,,,0.01,WUHU216HW,2013-02-27 02:03:00,
2013-02-26 18:08:00,41.0,17.3,30.14,NW,315,0.7,0.9,38,0.00,,,0.01,WUHU216HW,2013-02-27 02:08:00,
2013-02-26 18:13:00,41.0,17.3,30.14,NNW,338,2.2,2.2,38,0.00,,,0.01,WUHU216HW,2013-02-27 02:13:00,
2013-02-26 18:18:00,40.9,17.1,30.14,NW,315,0.4,2.2,38,0.00,,,0.01,WUHU216HW,2013-02-27 02:18:00,
2013-02-26 18:24:00,40.7,17.6,30.14,North,0,1.1,1.8,39,0.00,,,0.01,WUHU216HW,2013-02-27 02:24:00,
2013-02-26 18:29:00,40.5,17.4,30.14,North,0,0.4,1.8,39,0.00,,,0.01,WUHU216HW,2013-02-27 02:29:00,
2013-02-26 18:34:00,40.3,17.3,30.14,North,0,1.6,2.0,39,0.00,,,0.01,WUHU216HW,2013-02-27 02:34:00,
2013-02-26 18:39:00,40.7,18.2,30.14,WSW,248,0.7,2.5,40,0.00,,,0.01,WUHU216HW,2013-02-27 02:39:00,
2013-02-26 18:44:00,40.7,18.2,30.15,West,270,2.7,3.1,40,0.00,,,0.01,WUHU216HW,2013-02-27 02:44:00,
2013-02-26 18:49:00,40.5,18.5,30.15,West,270,1.8,3.1,41,0.00,,,0.01,WUHU216HW,2013-02-27 02:49:00,
2013-02-26 18:54:00,40.3,18.9,30.15,WNW,293,2.5,3.6,42,0.00,,,0.01,WUHU216HW,2013-02-27 02:54:00,
2013-02-26 18:59:00,40.3,19.4,30.15,West,270,0.4,3.6,43,0.00,,,0.01,WUHU216HW,2013-02-27 02:59:00,
2013-02-26 19:04:00,40.1,19.8,30.15,WSW,248,0.4,4.0,44,0.00,,,0.01,WUHU216HW,2013-02-27 03:04:00,
2013-02-26 19:09:00,40.3,20.0,30.15,West,270,1.1,4.0,44,0.00,,,0.01,WUHU216HW,2013-02-27 03:09:00,
2013-02-26 19:14:00,40.1,19.8,30.15,West,270,0.9,2.5,44,0.00,,,0.01,WUHU216HW,2013-02-27 03:14:00,
2013-02-26 19:19:00,40.0,20.2,30.15,WSW,248,1.6,2.5,45,0.00,,,0.01,WUHU216HW,2013-02-27 03:19:00,
2013-02-26 19:24:00,40.0,20.2,30.15,SSW,203,2.2,2.5,45,0.00,,,0.01,WUHU216HW,2013-02-27 03:24:00,
2013-02-26 19:29:00,39.8,20.0,30.15,WSW,248,1.1,3.4,45,0.00,,,0.01,WUHU216HW,2013-02-27 03:29:00,
2013-02-26 19:34:00,39.6,19.9,30.15,West,270,2.0,4.7,45,0.00,,,0.01,WUHU216HW,2013-02-27 03:34:00,
2013-02-26 19:39:00,39.4,19.7,30.15,SW,225,4.5,5.4,45,0.00,,,0.01,WUHU216HW,2013-02-27 03:39:00,
2013-02-26 19:44:00,39.2,19.5,30.15,WSW,248,1.1,5.4,45,0.00,,,0.01,WUHU216HW,2013-02-27 03:44:00,
2013-02-26 19:49:00,39.2,19.5,30.15,SW,225,0.9,5.1,45,0.00,,,0.01,WUHU216HW,2013-02-27 03:49:00,
2013-02-26 19:54:00,39.2,19.5,30.15,SW,225,2.2,3.4,45,0.00,,,0.01,WUHU216HW,2013-02-27 03:54:00,
2013-02-26 19:59:00,39.2,19.5,30.15,SSW,203,0.4,2.5,45,0.00,,,0.01,WUHU216HW,2013-02-27 03:59:00,
2013-02-26 20:04:00,39.1,19.4,30.15,SW,225,1.3,2.9,45,0.00,,,0.01,WUHU216HW,2013-02-27 04:04:00,
2013-02-26 20:09:00,38.9,19.2,30.16,WNW,293,3.8,4.0,45,0.00,,,0.01,WUHU216HW,2013-02-27 04:09:00,
2013-02-26 20:14:00,38.7,19.1,30.15,West,270,2.7,5.4,45,0.00,,,0.01,WUHU216HW,2013-02-27 04:14:00,
2013-02-26 20:19:00,38.5,18.9,30.16,SW,225,2.0,5.4,45,0.00,,,0.01,WUHU216HW,2013-02-27 04:19:00,
2013-02-26 20:24:00,38.3,19.3,30.15,SW,225,1.6,7.4,46,0.00,,,0.01,WUHU216HW,2013-02-27 04:24:00,
2013-02-26 20:29:00,38.2,19.1,30.16,WSW,248,3.4,7.4,46,0.00,,,0.01,WUHU216HW,2013-02-27 04:29:00,
2013-02-26 20:34:00,38.2,19.1,30.16,WSW,248,3.4,5.4,46,0.00,,,0.01,WUHU216HW,2013-02-27 04:34:00,
2013-02-26 20:40:00,38.0,18.9,30.16,SSW,203,1.8,5.4,46,0.00,,,0.01,WUHU216HW,2013-02-27 04:40:00,
2013-02-26 20:45:00,38.0,18.9,30.16,SW,225,2.5,4.7,46,0.00,,,0.01,WUHU216HW,2013-02-27 04:45:00,
2013-02-26 20:50:00,37.8,19.3,30.16,SW,225,3.4,4.7,47,0.00,,,0.01,WUHU216HW,2013-02-27 04:50:00,
2013-02-26 20:55:00,37.8,18.7,30.16,SW,225,2.0,5.4,46,0.00,,,0.01,WUHU216HW,2013-02-27 04:55:00,
2013-02-26 21:00:00,37.8,18.7,30.17,SW,225,1.8,5.4,46,0.00,,,0.01,WUHU216HW,2013-02-27 05:00:00,
2013-02-26 21:05:00,37.8,18.7,30.17,SSW,203,3.6,4.7,46,0.00,,,0.01,WUHU216HW,2013-02-27 05:05:00,
2013-02-26 21:10:00,37.6,18.6,30.16,South,180,0.2,4.0,46,0.00,,,0.01,WUHU216HW,2013-02-27 05:10:00,
2013-02-26 21:15:00,37.4,18.5,30.17,ESE,113,0.2,4.0,46,0.00,,,0.01,WUHU216HW,2013-02-27 05:15:00,
2013-02-26 21:20:00,37.4,18.5,30.17,SW,225,2.0,2.0,46,0.00,,,0.01,WUHU216HW,2013-02-27 05:20:00,
2013-02-26 21:25:00,37.3,18.3,30.16,SSW,203,1.6,2.0,46,0.00,,,0.01,WUHU216HW,2013-02-27 05:25:00,
2013-02-26 21:30:00,37.3,18.3,30.16,SE,135,1.1,2.0,46,0.00,,,0.01,WUHU216HW,2013-02-27 05:30:00,
2013-02-26 21:35:00,37.1,18.1,30.16,SSW,203,6.5,6.5,46,0.00,,,0.01,WUHU216HW,2013-02-27 05:35:00,
2013-02-26 21:40:00,37.1,18.1,30.16,SW,225,4.5,6.5,46,0.00,,,0.01,WUHU216HW,2013-02-27 05:40:00,
2013-02-26 21:45:00,36.9,17.9,30.16,WSW,248,0.7,4.9,46,0.00,,,0.01,WUHU216HW,2013-02-27 05:45:00,
2013-02-26 21:50:00,36.9,17.9,30.16,WSW,248,3.8,4.7,46,0.00,,,0.01,WUHU216HW,2013-02-27 05:50:00,
2013-02-26 21:56:00,36.7,17.8,30.16,ESE,113,0.2,3.8,46,0.00,,,0.01,WUHU216HW,2013-02-27 05:56:00,
2013-02-26 22:01:00,36.5,17.7,30.16,ESE,113,0.4,1.8,46,0.00,,,0.01,WUHU216HW,2013-02-27 06:01:00,
2013-02-26 22:06:00,36.5,18.2,30.16,SSE,158,1.1,1.8,47,0.00,,,0.01,WUHU216HW,2013-02-27 06:06:00,
2013-02-26 22:11:00,36.4,18.0,30.16,SE,135,0.9,2.0,47,0.00,,,0.01,WUHU216HW,2013-02-27 06:11:00,
2013-02-26 22:16:00,36.4,18.0,30.16,East,90,0.7,2.0,47,0.00,,,0.01,WUHU216HW,2013-02-27 06:16:00,
2013-02-26 22:21:00,36.2,17.8,30.15,NE,45,1.3,1.3,47,0.00,,,0.01,WUHU216HW,2013-02-27 06:21:00,
2013-02-26 22:26:00,36.0,17.6,30.16,SSE,158,1.1,1.3,47,0.00,,,0.01,WUHU216HW,2013-02-27 06:26:00,
2013-02-26 22:31:00,35.8,17.5,30.16,South,180,0.2,2.0,47,0.00,,,0.01,WUHU216HW,2013-02-27 06:31:00,
2013-02-26 22:36:00,35.6,17.4,30.16,South,180,1.8,2.0,47,0.00,,,0.01,WUHU216HW,2013-02-27 06:36:00,
2013-02-26 22:41:00,35.6,17.4,30.16,South,180,0.4,3.4,47,0.00,,,0.01,WUHU216HW,2013-02-27 06:41:00,
2013-02-26 22:46:00,35.5,17.2,30.16,NE,45,0.4,3.4,47,0.00,,,0.01,WUHU216HW,2013-02-27 06:46:00,
2013-02-26 22:51:00,35.5,17.6,30.16,SW,225,0.4,2.5,48,0.00,,,0.01,WUHU216HW,2013-02-27 06:51:00,
2013-02-26 22:56:00,35.3,17.5,30.16,SW,225,1.3,2.5,48,0.00,,,0.01,WUHU216HW,2013-02-27 06:56:00,
2013-02-26 23:01:00,34.9,17.2,30.16,West,270,1.1,3.4,48,0.00,,,0.01,WUHU216HW,2013-02-27 07:01:00,
2013-02-26 23:06:00,34.7,17.0,30.16,West,270,4.3,4.3,48,0.00,,,0.01,WUHU216HW,2013-02-27 07:06:00,
2013-02-26 23:11:00,34.6,16.8,30.16,WSW,248,4.3,4.3,48,0.00,,,0.01,WUHU216HW,2013-02-27 07:11:00,
2013-02-26 23:16:00,34.2,16.9,30.15,West,270,1.8,4.3,49,0.00,,,0.01,WUHU216HW,2013-02-27 07:16:00,
2013-02-26 23:21:00,34.0,16.7,30.15,SW,225,3.4,6.9,49,0.00,,,0.01,WUHU216HW,2013-02-27 07:21:00,
2013-02-26 23:26:00,34.0,16.7,30.15,WSW,248,2.0,6.9,49,0.00,,,0.01,WUHU216HW,2013-02-27 07:26:00,
2013-02-26 23:31:00,33.8,16.6,30.16,West,270,8.1,8.1,49,0.00,,,0.01,WUHU216HW,2013-02-27 07:31:00,
2013-02-26 23:36:00,33.8,16.6,30.16,West,270,4.7,8.1,49,0.00,,,0.01,WUHU216HW,2013-02-27 07:36:00,
2013-02-26 23:41:00,33.8,16.6,30.16,West,270,3.4,6.0,49,0.00,,,0.01,WUHU216HW,2013-02-27 07:41:00,
2013-02-26 23:46:00,33.7,16.5,30.16,West,270,6.0,6.0,49,0.00,,,0.01,WUHU216HW,2013-02-27 07:46:00,
2013-02-26 23:51:00,33.8,16.6,30.16,West,270,5.1,6.9,49,0.00,,,0.01,WUHU216HW,2013-02-27 07:51:00,
2013-02-26 23:56:00,33.8,16.6,30.15,WSW,248,6.9,6.9,49,0.00,,,0.01,WUHU216HW,2013-02-27 07:56:00,